• Join FlightAware (Why Join?)
  • Login
  • US Flag 
11:17PM EDT


 

Airport Tracker/Info


-or-


 

Live Flight TrackerFlight Track Log ✈ N127UA ✈ 26-Apr-2012 ✈ KSFO - RKSI / ICN

Flight Track Log - Related Links

Times and Time Zones

All times are in EDT time to prevent confusion due to time zone crossing. See the N127UA flight status page for this flight to view local times or setup timezone preferences in your user account.

Time Position Orientation Groundspeed Altitude Reporting Facility
EDT Latitude Longitude Course Direction KTS MPH feet Rate Location/Type
02:50PM 37.6323 -122.3417 286° West  Level FlightAware Approximate
02:51PM 37.7152 -122.2181 256° West  Level FlightAware Approximate
02:52PM 37.6636 -122.4819 303° West 167 192 3,000  Level Oakland Center
02:53PM 37.6919 -122.5378 349° North 173 199 3,900 1,080 Climbing Oakland Center
02:54PM 37.7628 -122.5550 27° Northeast 199 229 5,200 1,500 Climbing Oakland Center
02:55PM 37.8364 -122.5067 61° Northeast 234 269 7,000 1,920 Climbing Oakland Center
02:56PM 37.8814 -122.4050 42° Northeast 262 302 9,100 1,800 Climbing Oakland Center
02:57PM 37.9575 -122.3194 26° Northeast 319 367 10,600 1,260 Climbing Oakland Center
02:58PM 38.0606 -122.2556 North 381 438 11,700 1,500 Climbing Oakland Center
02:59PM 38.1794 -122.2469 360° North 390 449 13,600 1,980 Climbing Oakland Center
03:00PM 38.3025 -122.2464 359° North 412 474 15,700 2,280 Climbing Oakland Center
03:01PM 38.4233 -122.2486 360° North 425 489 18,200 2,220 Climbing Oakland Center
03:02PM 38.5444 -122.2481 North 425 489 20,200 1,860 Climbing Oakland Center
03:03PM 38.6653 -122.2447 358° North 425 489 21,900 1,500 Climbing Oakland Center
03:04PM 38.7883 -122.2497 360° North 430 495 23,200 1,380 Climbing Oakland Center
03:05PM 38.9156 -122.2492 357° North 444 511 24,700 1,320 Climbing Oakland Center
03:06PM 39.0469 -122.2594 351° North 454 522 25,900 1,080 Climbing Oakland Center
03:07PM 39.1739 -122.2858 349° North 460 529 26,900 1,200 Climbing Oakland Center
03:08PM 39.3006 -122.3178 349° North 466 536 28,300 1,260 Climbing Oakland Center
03:09PM 39.4253 -122.3497 353° North 466 536 29,500 1,200 Climbing Oakland Center
03:10PM 39.5503 -122.3683 350° North 461 531 30,700 900 Climbing Oakland Center
03:11PM 39.6772 -122.3978 350° North 461 531 31,400 600 Climbing Oakland Center
03:12PM 39.8039 -122.4272 349° North 461 531 32,000 240 Climbing Oakland Center
03:13PM 39.9328 -122.4597 349° North 467 537 32,000  Level Oakland Center
03:14PM 40.0594 -122.4922 350° North 467 537 32,000  Level Oakland Center
03:15PM 40.2008 -122.5253 352° North 472 543 32,000  Level Oakland Center
03:16PM 40.3256 -122.5497 350° North 462 532 32,000  Level Oakland Center
03:17PM 40.4503 -122.5800 351° North 462 532 32,000  Level Oakland Center
03:18PM 40.5750 -122.6047 350° North 462 532 32,000  Level Oakland Center
03:19PM 40.6994 -122.6350 351° North 457 526 32,000  Level Oakland Center
03:20PM 40.8528 -122.6678 350° North 461 531 32,000  Level Seattle Center
03:21PM 40.9808 -122.6981 350° North 465 535 32,000  Level Seattle Center
03:22PM 41.1075 -122.7286 349° North 464 534 32,000  Level Seattle Center
03:23PM 41.2325 -122.7600 350° North 460 529 32,000  Level Seattle Center
03:24PM 41.3592 -122.7903 350° North 460 529 32,000  Level Seattle Center
03:25PM 41.4878 -122.8200 350° North 469 540 32,000  Level Seattle Center
03:26PM 41.6192 -122.8503 350° North 476 548 32,000  Level Seattle Center
03:27PM 41.7503 -122.8822 349° North 476 548 32,000  Level Seattle Center
03:28PM 41.8806 -122.9153 352° North 475 547 32,000  Level Seattle Center
03:29PM 42.0139 -122.9392 350° North 478 550 32,000  Level Seattle Center
03:30PM 42.1458 -122.9717 350° North 479 551 32,000  Level Seattle Center
03:31PM 42.3058 -123.0106 349° North 482 555 32,000  Level Seattle Center
03:32PM 42.4386 -123.0444 350° North 485 558 32,000  Level Seattle Center
03:33PM 42.5719 -123.0758 350° North 484 557 32,000  Level Seattle Center
03:34PM 42.7061 -123.1086 349° North 487 560 32,000  Level Seattle Center
03:35PM 42.8425 -123.1436 350° North 487 560 32,000  Level Seattle Center
03:36PM 42.9769 -123.1767 350° North 490 564 32,000  Level Seattle Center
03:37PM 43.1108 -123.2092 349° North 488 562 32,000  Level Seattle Center
03:38PM 43.2458 -123.2447 350° North 492 566 32,000  Level Seattle Center
03:39PM 43.3822 -123.2789 350° North 495 570 32,000  Level Seattle Center
03:40PM 43.5181 -123.3131 350° North 496 571 32,000  Level Seattle Center
03:41PM 43.6547 -123.3469 350° North 497 572 32,000  Level Seattle Center
03:42PM 43.7919 -123.3803 350° North 499 574 32,000  Level Seattle Center
03:44PM 43.9561 -123.4225 350° North 498 573 32,000  Level Seattle Center
03:45PM 44.0717 -123.4522 350° North 501 577 32,000  Level Seattle Center
03:46PM 44.2092 -123.4872 349° North 502 578 32,000  Level Seattle Center
03:47PM 44.3756 -123.5306 349° North 507 583 32,000 -60 Level Seattle Center
03:48PM 44.5164 -123.5672 349° North 513 590 31,900  Descending Seattle Center
03:50PM 44.7997 -123.6417 341° North 516 594 32,000  Climbing Seattle Center
03:51PM 44.9392 -123.7086 338° Northwest 511 588 32,000  Level Seattle Center
03:52PM 45.0739 -123.7844 338° Northwest 511 588 32,000  Level Seattle Center
03:53PM 45.2072 -123.8603 338° Northwest 514 592 32,000  Level Seattle Center
03:55PM 45.4739 -124.0122 338° Northwest 517 595 32,000  Level Seattle Center
03:56PM 45.6067 -124.0897 338° Northwest 516 594 32,000  Level Seattle Center
03:57PM 45.7397 -124.1667 338° Northwest 516 594 32,000  Level Seattle Center
03:58PM 45.8725 -124.2447 338° Northwest 517 595 32,000  Level Seattle Center
03:59PM 46.0069 -124.3222 338° Northwest 520 598 32,000  Level Seattle Center
04:00PM 46.1414 -124.4000 337° Northwest 520 598 32,000  Level Seattle Center
04:01PM 46.2764 -124.4842 338° Northwest 526 605 32,000  Level Seattle Center
04:02PM 46.4164 -124.5667 338° Northwest 527 606 32,000  Level Seattle Center
04:03PM 46.5792 -124.6631 337° Northwest 527 606 32,000  Level Seattle Center
04:04PM 46.7156 -124.7458 337° Northwest 530 610 32,000  Level Seattle Center
04:05PM 46.8519 -124.8289 337° Northwest 530 610 32,000  Level Seattle Center
04:06PM 46.9881 -124.9128 338° Northwest 531 611 32,000  Level Seattle Center
04:07PM 47.1239 -124.9944 337° Northwest 529 609 32,000  Level Seattle Center
04:08PM 47.2594 -125.0803 338° Northwest 529 609 32,000  Level Seattle Center
04:09PM 47.3961 -125.1639 337° Northwest 530 610 32,000  Level Seattle Center
04:10PM 47.5322 -125.2492 337° Northwest 530 610 32,000  Level Seattle Center
04:11PM 47.6683 -125.3350 337° Northwest 531 611 32,000  Level Seattle Center
04:12PM 47.8056 -125.4217 337° Northwest 532 612 32,000  Level Seattle Center
04:13PM 47.9428 -125.5083 337° Northwest 533 613 32,000  Level Seattle Center
04:14PM 48.0811 -125.5956 337° Northwest 536 617 32,000  Level Seattle Center
04:15PM 48.2475 -125.7028 337° Northwest 539 620 32,000  Level Seattle Center
04:16PM 48.3861 -125.7933 331° Northwest 540 621 32,000  Level Seattle Center
04:17PM 48.5333 -125.9167 338° Northwest 540 621 32,000  Level Vancouver Center
04:18PM 48.6667 -126.0000 340° North 540 621 32,000  Level Vancouver Center
04:19PM 48.8167 -126.0833 334° Northwest 540 621 32,000  Level Vancouver Center
04:20PM 48.9500 -126.1833 338° Northwest 540 621 32,000  Level Vancouver Center
04:21PM 49.0833 -126.2667 340° North 560 644 32,000  Level Vancouver Center
04:22PM 49.2333 -126.3500 330° Northwest 540 621 32,000  Level Vancouver Center
04:23PM 49.3667 -126.4667 335° Northwest 540 621 32,000  Level Vancouver Center
04:24PM 49.4833 -126.5500 333° Northwest 540 621 32,000  Level Vancouver Center
04:25PM 49.6333 -126.6667 338° Northwest 540 621 32,000  Level Vancouver Center
04:26PM 49.7667 -126.7500 340° North 540 621 32,000  Level Vancouver Center
04:27PM 49.9167 -126.8333 331° Northwest 540 621 32,000  Level Vancouver Center
04:28PM 50.0500 -126.9500 340° North 540 621 32,000  Level Vancouver Center
04:29PM 50.2000 -127.0333 338° Northwest 550 633 32,000  Level Vancouver Center
04:30PM 50.3333 -127.1167 328° Northwest 550 633 32,000  Level Vancouver Center
04:31PM 50.4500 -127.2333 341° North 550 633 32,000  Level Vancouver Center
04:32PM 50.6000 -127.3167 321° Northwest 550 633 32,000  Level Vancouver Center
04:33PM 50.7167 -127.4667 318° Northwest 540 621 32,000  Level Vancouver Center
04:34PM 50.8333 -127.6333 314° West 530 610 32,000  Level Vancouver Center
04:35PM 50.9333 -127.8000 314° West 530 610 32,000  Level Vancouver Center
04:36PM 51.0333 -127.9667 318° Northwest 530 610 32,000  Level Vancouver Center
04:37PM 51.1500 -128.1333 309° West 530 610 32,000  Level Vancouver Center
04:38PM 51.2333 -128.3000 311° West 530 610 32,000  Level Vancouver Center
04:39PM 51.3333 -128.4833 318° Northwest 530 610 32,000  Level Vancouver Center
04:40PM 51.4500 -128.6500 314° West 530 610 32,000  Level Vancouver Center
04:41PM 51.5500 -128.8167 311° West 530 610 32,000  Level Vancouver Center
04:42PM 51.6500 -129.0000 314° West 530 610 32,000  Level Vancouver Center
04:43PM 51.7500 -129.1667 311° West 530 610 32,000  Level Vancouver Center
04:44PM 51.8500 -129.3500 321° Northwest 530 610 32,000  Level Vancouver Center
04:45PM 51.9500 -129.4833 312° West 530 610 32,000  Level Vancouver Center
04:46PM 52.0500 -129.6667 312° West 520 598 32,000  Level Vancouver Center
04:47PM 52.1500 -129.8500 314° West 520 598 32,000  Level Vancouver Center
04:48PM 52.2500 -130.0167 312° West 520 598 32,000  Level Vancouver Center
04:49PM 52.3500 -130.2000 312° West 520 598 32,000  Level Vancouver Center
04:50PM 52.4500 -130.3833 309° West 520 598 32,000  Level Vancouver Center
04:51PM 52.5333 -130.5500 316° Northwest 520 598 32,000  Level Vancouver Center
04:52PM 52.6500 -130.7333 313° West 520 598 32,000  Level Vancouver Center
04:53PM 52.7333 -130.8833 317° Northwest 520 598 32,000  Level Vancouver Center
04:54PM 52.8500 -131.0667 307° West 520 598 32,000  Level Vancouver Center
04:55PM 52.9333 -131.2500 312° West 520 598 32,000  Level Vancouver Center
04:56PM 53.0333 -131.4333 312° West 520 598 32,000  Level Vancouver Center
04:57PM 53.1333 -131.6167 307° West 520 598 32,000  Level Vancouver Center
04:58PM 53.2167 -131.8000 310° West 520 598 32,000  Level Vancouver Center
04:59PM 53.3000 -131.9667 323° Northwest 510 587 32,000  Level Vancouver Center
05:00PM 53.4167 -132.1167 303° West 520 598 32,000  Level Anchorage Center
05:01PM 53.5000 -132.3333 310° West 520 598 32,000  Level Vancouver Center
05:02PM 53.6000 -132.5333 315° West 520 598 32,000  Level Vancouver Center
05:03PM 53.7000 -132.7000 317° Northwest 520 598 32,000  Level Vancouver Center
05:04PM 53.8167 -132.8833 313° West 520 598 32,000  Level Vancouver Center
05:05PM 53.9000 -133.0333 313° West 520 598 32,000  Level Anchorage Center
05:06PM 54.0000 -133.2167 313° West 520 598 32,000  Level Anchorage Center
05:07PM 54.1000 -133.4000 308° West 520 598 32,000  Level Anchorage Center
05:08PM 54.1833 -133.5833 303° West 510 587 32,000  Level Anchorage Center
05:09PM 54.2667 -133.8000 300° West 510 587 32,000  Level Anchorage Center
05:10PM 54.3333 -134.0000 287° West 510 587 32,000  Level Anchorage Center
05:11PM 54.3833 -134.2833 302° West 520 598 32,000  Level Vancouver Center
05:12PM 54.4500 -134.4667 298° West 520 598 32,000  Level Vancouver Center
05:13PM 54.5167 -134.6833 296° West 510 587 32,000  Level Vancouver Center
05:14PM 54.5833 -134.9167 304° West 510 587 32,000  Level Vancouver Center
05:15PM 54.6667 -135.1333 292° West 510 587 32,000 120 Level Vancouver Center
05:16PM 54.7167 -135.3500 300° West 510 587 32,300 600 Climbing Vancouver Center
05:17PM 54.7833 -135.5500 292° West 510 587 33,200 840 Climbing Vancouver Center
05:18PM 54.8333 -135.7667 302° West 510 587 34,000 360 Climbing Vancouver Center
05:19PM 54.9167 -136.0000 298° West 510 587 34,000  Level Vancouver Center
05:20PM 54.9833 -136.2167 297° West 510 587 34,000  Level Vancouver Center
05:21PM 55.0500 -136.4500 298° West 510 587 34,000  Level Vancouver Center
05:22PM 55.1000 -136.6167 292° West 510 587 34,000  Level Vancouver Center
05:23PM 55.1500 -136.8333 297° West 510 587 34,000  Level Vancouver Center
05:24PM 55.2167 -137.0667 292° West 510 587 34,000  Level Vancouver Center
05:25PM 55.2667 -137.2833 306° West 510 587 34,000  Level Vancouver Center
05:27PM 55.3500 -137.4833 291° West 500 575 34,000  Level Anchorage Center
05:27PM 55.4000 -137.7167 291° West 510 587 34,000  Level Vancouver Center
05:28PM 55.4500 -137.9500 297° West 510 587 34,000  Level Vancouver Center
05:29PM 55.5167 -138.1833 292° West 510 587 34,000  Level Vancouver Center
05:30PM 55.5667 -138.4000 297° West 510 587 34,000  Level Vancouver Center
05:31PM 55.6333 -138.6333 291° West 510 587 34,000  Level Vancouver Center
05:32PM 55.6833 -138.8667 291° West 510 587 34,000  Level Vancouver Center
05:33PM 55.7333 -139.1000 303° West 510 587 34,000  Level Vancouver Center
05:34PM 55.8167 -139.3333 291° West 510 587 34,000  Level Vancouver Center
05:35PM 55.8667 -139.5667 303° West 520 598 34,000  Level Vancouver Center
05:37PM 55.9500 -139.8000 293° West 500 575 34,000  Level Anchorage Center
05:38PM 56.0000 -140.0167 291° West 500 575 34,000  Level Anchorage Center
05:39PM 56.0500 -140.2500 284° West 490 564 34,000  Level Anchorage Center
05:39PM 56.0833 -140.4833 305° West 500 575 34,000  Level Vancouver Center
05:41PM 56.1667 -140.7000 291° West 500 575 34,000  Level Anchorage Center
05:42PM 56.2167 -140.9333 297° West 490 564 34,000  Level Anchorage Center
05:43PM 56.2833 -141.1667 294° West 490 564 34,000  Level Anchorage Center
05:44PM 56.3333 -141.3667 291° West 490 564 34,000  Level Anchorage Center
05:45PM 56.3833 -141.6000 293° West 480 552 34,000  Level Anchorage Center
05:46PM 56.4333 -141.8167 291° West 490 564 34,000  Level Anchorage Center
05:47PM 56.4833 -142.0500 293° West 490 564 34,000  Level Anchorage Center
05:48PM 56.5333 -142.2667 291° West 480 552 34,000  Level Anchorage Center
05:49PM 56.5833 -142.5000 298° West 480 552 34,000  Level Anchorage Center
05:50PM 56.6500 -142.7333 291° West 490 564 34,000  Level Anchorage Center
05:51PM 56.7000 -142.9667 291° West 490 564 34,000  Level Anchorage Center
05:52PM 56.7500 -143.2000 291° West 480 552 34,000  Level Anchorage Center
05:53PM 56.8000 -143.4333 291° West 490 564 34,000  Level Anchorage Center
05:54PM 56.8500 -143.6667 292° West 490 564 34,000  Level Anchorage Center
05:55PM 56.9000 -143.9000 292° West 480 552 34,000  Level Anchorage Center
05:56PM 56.9500 -144.1333 285° West 490 564 34,000  Level Anchorage Center
05:57PM 56.9833 -144.3667 292° West 480 552 34,000  Level Anchorage Center
05:58PM 57.0333 -144.6000 290° West 490 564 34,000  Level Anchorage Center
05:59PM 57.0833 -144.8500 293° West 490 564 34,000  Level Anchorage Center
06:00PM 57.1333 -145.0667 290° West 480 552 34,000  Level Anchorage Center
06:01PM 57.1833 -145.3167 292° West 480 552 34,000  Level Anchorage Center
06:02PM 57.2333 -145.5500 285° West 480 552 34,000  Level Anchorage Center
06:03PM 57.2667 -145.7833 290° West 490 564 34,000  Level Anchorage Center
06:04PM 57.3167 -146.0333 292° West 490 564 34,000  Level Anchorage Center
06:05PM 57.3667 -146.2667 285° West 480 552 34,000  Level Anchorage Center
06:06PM 57.4000 -146.5000 292° West 480 552 34,000  Level Anchorage Center
06:07PM 57.4500 -146.7333 291° West 480 552 34,000  Level Anchorage Center
06:08PM 57.5000 -146.9833 284° West 490 564 34,000  Level Anchorage Center
06:09PM 57.5333 -147.2333 292° West 490 564 34,000  Level Anchorage Center
06:10PM 57.5833 -147.4667 284° West 490 564 34,000  Level Anchorage Center
06:11PM 57.6167 -147.7167 292° West 480 552 34,000  Level Anchorage Center
06:12PM 57.6667 -147.9500 284° West 480 552 34,000  Level Anchorage Center
06:13PM 57.7000 -148.2000 291° West 490 564 34,000  Level Anchorage Center
06:14PM 57.7500 -148.4500 284° West 500 575 34,000  Level Anchorage Center
06:15PM 57.7833 -148.7000 291° West 500 575 34,000  Level Anchorage Center
06:16PM 57.8333 -148.9500 284° West 490 564 34,000  Level Anchorage Center
06:17PM 57.8667 -149.2000 291° West 490 564 34,000  Level Anchorage Center
06:18PM 57.9167 -149.4500 284° West 490 564 34,000  Level Anchorage Center
06:19PM 57.9500 -149.7000 284° West 500 575 34,000  Level Anchorage Center
06:20PM 57.9833 -149.9500 284° West 490 564 34,000  Level Anchorage Center
06:21PM 58.0167 -150.2000 284° West 490 564 34,000  Level Anchorage Center
06:22PM 58.0500 -150.4500 284° West 490 564 34,000  Level Anchorage Center
06:23PM 58.0833 -150.7000 287° West 490 564 34,000  Level Anchorage Center
06:24PM 58.1333 -151.0167 277° West 490 564 34,000  Level Anchorage Center
06:25PM 58.1500 -151.2667 284° West 500 575 34,000  Level Anchorage Center
06:26PM 58.1833 -151.5167 283° West 500 575 34,000  Level Anchorage Center
06:27PM 58.2167 -151.7833 285° West 500 575 34,000  Level Anchorage Center
06:28PM 58.2500 -152.0167 283° West 500 575 34,000  Level Anchorage Center
06:29PM 58.2833 -152.2833 284° West 500 575 34,000  Level Anchorage Center
06:30PM 58.3167 -152.5333 277° West 500 575 34,000  Level Anchorage Center
06:31PM 58.3333 -152.8000 284° West 500 575 34,000  Level Anchorage Center
06:32PM 58.3667 -153.0667 284° West 500 575 34,000  Level Anchorage Center
06:33PM 58.4000 -153.3167 284° West 500 575 34,000  Level Anchorage Center
06:34PM 58.4333 -153.5833 277° West 490 564 34,000  Level Anchorage Center
06:35PM 58.4500 -153.8333 284° West 500 575 34,000  Level Anchorage Center
06:36PM 58.4833 -154.1000 277° West 500 575 34,000  Level Anchorage Center
06:37PM 58.5000 -154.3500 284° West 490 564 34,000  Level Anchorage Center
06:38PM 58.5333 -154.6167 277° West 490 564 34,000  Level Anchorage Center
06:39PM 58.5500 -154.8833 284° West 490 564 34,000  Level Anchorage Center
06:40PM 58.5833 -155.1333 277° West 490 564 34,000  Level Anchorage Center
06:41PM 58.6000 -155.4000 284° West 490 564 34,000  Level Anchorage Center
06:42PM 58.6333 -155.6500 277° West 490 564 34,000  Level Anchorage Center
06:43PM 58.6500 -155.9167 282° West 490 564 34,000  Level Anchorage Center
06:44PM 58.6833 -156.2333 279° West 490 564 34,000  Level Anchorage Center
06:45PM 58.7000 -156.4500 277° West 500 575 34,000  Level Anchorage Center
06:46PM 58.7167 -156.7167 276° West 490 564 34,000  Level Anchorage Center
06:47PM 58.7333 -157.0333 278° West 490 564 34,000  Level Anchorage Center
06:48PM 58.7500 -157.2667 270° West 490 564 34,000  Level Anchorage Center
06:49PM 58.7500 -157.5333 277° West 490 564 34,000  Level Anchorage Center
06:50PM 58.7667 -157.8000 277° West 490 564 34,000  Level Anchorage Center
06:51PM 58.7833 -158.0667 270° West 490 564 34,000  Level Anchorage Center
06:52PM 58.7833 -158.3167 277° West 490 564 34,000  Level Anchorage Center
06:53PM 58.8000 -158.5833 277° West 490 564 34,000  Level Anchorage Center
06:54PM 58.8167 -158.8500 270° West 480 552 34,000  Level Anchorage Center
06:55PM 58.8167 -159.1167 277° West 490 564 34,000  Level Anchorage Center
06:56PM 58.8333 -159.3667 276° West 470 541 34,000  Level Anchorage Center
06:57PM 58.8500 -159.6667 270° West 490 564 34,000  Level Anchorage Center
06:58PM 58.8500 -159.9333 270° West 470 541 34,000  Level Anchorage Center
06:59PM 58.8500 -160.1833 277° West 470 541 34,000  Level Anchorage Center
07:00PM 58.8667 -160.4333 270° West 470 541 34,000  Level Anchorage Center
07:01PM 58.8667 -160.7000 277° West 480 552 34,000  Level Anchorage Center
07:02PM 58.8833 -160.9500 270° West 470 541 34,000  Level Anchorage Center
07:03PM 58.8833 -161.2167 270° West 480 552 34,000  Level Anchorage Center
07:04PM 58.8833 -161.4667 270° West 470 541 34,000  Level Anchorage Center
07:05PM 58.8833 -161.7333 277° West 480 552 34,000  Level Anchorage Center
07:06PM 58.9000 -161.9833 270° West 470 541 34,000  Level Anchorage Center
07:07PM 58.9000 -162.2333 270° West 470 541 34,000  Level Anchorage Center
07:08PM 58.9000 -162.4833 270° West 470 541 34,000  Level Anchorage Center
07:09PM 58.9000 -162.7500 270° West 470 541 34,000  Level Anchorage Center
07:10PM 58.9000 -163.0000 270° West 470 541 34,000  Level Anchorage Center
07:11PM 58.9000 -163.2500 270° West 470 541 34,000  Level Anchorage Center
07:12PM 58.9000 -163.5000 270° West 470 541 34,000  Level Anchorage Center
07:13PM 58.9000 -163.7667 270° West 470 541 34,000  Level Anchorage Center
07:14PM 58.9000 -163.9667 270° West 470 541 34,000  Level Anchorage Center
07:15PM 58.9000 -164.2167 270° West 470 541 34,000  Level Anchorage Center
07:16PM 58.9000 -164.4667 270° West 470 541 34,000  Level Anchorage Center
07:17PM 58.9000 -164.7333 270° West 460 529 34,000  Level Anchorage Center
07:18PM 58.9000 -164.9833 270° West 470 541 34,000  Level Anchorage Center
07:19PM 58.9000 -165.2333 270° West 480 552 34,000  Level Anchorage Center
07:20PM 58.9000 -165.5000 270° West 460 529 34,000  Level Anchorage Center
07:21PM 58.9000 -165.7500 263° West 470 541 34,000  Level Anchorage Center
07:22PM 58.8833 -166.0000 270° West 460 529 34,000  Level Anchorage Center
07:23PM 58.8833 -166.2500 270° West 460 529 34,000  Level Anchorage Center
07:24PM 58.8833 -166.5000 270° West 470 541 34,000  Level Anchorage Center
07:25PM 58.8833 -166.7500 270° West 460 529 34,000  Level Anchorage Center
07:26PM 58.8833 -167.0000 270° West 460 529 34,000  Level Anchorage Center
07:27PM 58.8833 -167.2500 263° West 460 529 34,000  Level Anchorage Center
07:28PM 58.8667 -167.5000 270° West 470 541 34,000  Level Anchorage Center
07:29PM 58.8667 -167.7667 270° West 470 541 34,000  Level Anchorage Center
07:30PM 58.8667 -168.0167 270° West 470 541 34,000 300 Level Anchorage Center
07:31PM 58.8667 -168.2833 263° West 480 552 34,700 480 Climbing Anchorage Center
07:32PM 58.8500 -168.5333 270° West 470 541 35,000 120 Climbing Anchorage Center
07:33PM 58.8500 -168.7833 263° West 470 541 35,000  Level Anchorage Center
07:34PM 58.8333 -169.0500 277° West 470 541 35,000  Level Anchorage Center
07:35PM 58.8500 -169.3000 270° West 470 541 35,000  Level Anchorage Center
07:36PM 58.8500 -169.5500 263° West 470 541 35,000  Level Anchorage Center
07:37PM 58.8333 -169.8167 263° West 470 541 35,000  Level Anchorage Center
07:38PM 58.8167 -170.0667 270° West 480 552 35,000  Level Anchorage Center
07:39PM 58.8167 -170.3333 263° West 480 552 35,000  Level Anchorage Center
07:40PM 58.8000 -170.5833 270° West 470 541 35,000  Level Anchorage Center
07:41PM 58.8000 -170.8500 263° West 480 552 35,000  Level Anchorage Center
07:42PM 58.7833 -171.1000 263° West 480 552 35,000  Level Anchorage Center
07:43PM 58.7667 -171.3667 270° West 480 552 35,000  Level Anchorage Center
07:44PM 58.7667 -171.6167 263° West 480 552 35,000  Level Anchorage Center
07:45PM 58.7500 -171.8667 263° West 480 552 35,000  Level Anchorage Center
07:46PM 58.7333 -172.1333 263° West 480 552 35,000  Level Anchorage Center
07:47PM 58.7167 -172.3833 263° West 480 552 35,000  Level Anchorage Center
07:48PM 58.7000 -172.6500 270° West 490 564 35,000  Level Anchorage Center
07:49PM 58.7000 -172.9000 263° West 480 552 35,000  Level Anchorage Center
07:50PM 58.6833 -173.1667 263° West 480 552 35,000  Level Anchorage Center
07:51PM 58.6667 -173.4167 263° West 490 564 35,000  Level Anchorage Center
07:52PM 58.6500 -173.6833 263° West 480 552 35,000  Level Anchorage Center
07:53PM 58.6333 -173.9333 263° West 490 564 35,000  Level Anchorage Center
07:54PM 58.6167 -174.2000 270° West 490 564 35,000  Level Anchorage Center
07:55PM 58.6167 -174.4667 263° West 490 564 35,000  Level Anchorage Center
07:56PM 58.6000 -174.7167 263° West 480 552 35,000  Level Anchorage Center
07:57PM 58.5833 -174.9833 263° West 480 552 35,000  Level Anchorage Center
07:58PM 58.5667 -175.2333 263° West 490 564 35,000  Level Anchorage Center
07:59PM 58.5500 -175.5000 256° West 480 552 35,000  Level Anchorage Center
08:00PM 58.5167 -175.7500 263° West 490 564 35,000  Level Anchorage Center
08:01PM 58.5000 -176.0167 263° West 490 564 35,000  Level Anchorage Center
08:02PM 58.4833 -176.2667 257° West 490 564 35,000  Level Anchorage Center
08:03PM 58.4500 -176.5333 263° West 490 564 35,000  Level Anchorage Center
08:04PM 58.4333 -176.7833 253° West 490 564 35,000  Level Anchorage Center
08:05PM 58.3833 -177.1000 245° Southwest 499 574 35,000  Level Anchorage Center
08:09PM 58.1833 -177.9000 244° Southwest 497 572 35,000  Level Anchorage Center
08:23PM 57.3167 178.9333 241° Southwest 495 570 35,000  Level Anchorage Center
08:30PM 56.8333 177.3500 240° Southwest 510 587 35,000  Level Anchorage Center
08:36PM 56.3500 175.8833 241° Southwest 514 592 35,000  Level Anchorage Center
08:41PM 56.0000 174.7667 235° Southwest 500 575 35,000  Level Anchorage Center
08:42PM 55.9333 174.6000 241° Southwest 490 564 35,000  Level Anchorage Center
08:43PM 55.8500 174.3333 237° Southwest 550 633 35,000  Level Anchorage Center
08:44PM 55.7833 174.1500 239° Southwest 530 610 35,000  Level Anchorage Center
08:45PM 55.7000 173.9000 238° Southwest 530 610 35,000  Level Anchorage Center
08:46PM 55.6167 173.6667 231° Southwest 530 610 35,000  Level Anchorage Center
08:47PM 55.5333 173.4833 238° Southwest 530 610 35,100 180 Climbing Anchorage Center
08:48PM 55.4500 173.2500 240° Southwest 520 598 35,400 300 Climbing Anchorage Center
08:49PM 55.3833 173.0500 233° Southwest 540 621 35,700 300 Climbing Anchorage Center
08:50PM 55.2833 172.8167 238° Southwest 540 621 36,000 120 Climbing Anchorage Center
08:51PM 55.2167 172.6333 235° Southwest 540 621 36,000  Level Anchorage Center
08:52PM 55.1167 172.3833 238° Southwest 540 621 36,000  Level Anchorage Center
08:53PM 55.0333 172.1500 238° Southwest 540 621 36,000  Level Anchorage Center
08:54PM 54.9667 171.9667 233° Southwest 540 621 36,000  Level Anchorage Center
08:55PM 54.8667 171.7333 232° Southwest 550 633 36,000  Level Anchorage Center
08:56PM 54.7833 171.5500 234° Southwest 540 621 36,000  Level Anchorage Center
08:57PM 54.6833 171.3167 238° Southwest 550 633 36,000  Level Anchorage Center
08:58PM 54.6167 171.1333 234° Southwest 550 633 36,000  Level Anchorage Center
08:59PM 54.5167 170.9000 232° Southwest 560 644 36,000  Level Anchorage Center
09:00PM 54.4333 170.7167 236° Southwest 560 644 36,000  Level Anchorage Center
09:01PM 54.3333 170.4667 234° Southwest 560 644 36,000  Level Anchorage Center
09:02PM 54.2333 170.2333 232° Southwest 560 644 36,000  Level Anchorage Center
09:03PM 54.1500 170.0500 232° Southwest 560 644 36,000  Level Anchorage Center
09:04PM 54.0500 169.8333 232° Southwest 560 644 36,000  Level Anchorage Center
09:05PM 53.9667 169.6500 234° Southwest 550 633 36,000  Level Anchorage Center
09:06PM 53.8667 169.4167 232° Southwest 560 644 36,000  Level Anchorage Center
09:07PM 53.7833 169.2333 239° Southwest 560 644 36,000  Level Anchorage Center
09:08PM 53.7000 169.0000 239° Southwest 530 610 36,000  Level Anchorage Center
09:09PM 53.6333 168.8167 239° Southwest 540 621 36,000  Level Anchorage Center
09:10PM 53.5500 168.5833 238° Southwest 550 633 36,000  Level Anchorage Center
09:13PM 53.4167 168.2333 239° Southwest 530 610 36,000  Level Anchorage Center
09:18PM 52.9500 166.9667 239° Southwest 532 612 36,000  Level Anchorage Center
09:32PM 51.8667 164.1667 236° Southwest 517 595 36,000  Level Anchorage Center
09:35PM 51.6500 163.6500 236° Southwest 513 590 36,000  Level Anchorage Center
09:46PM 50.7500 161.5667 234° Southwest 507 583 36,000  Level Anchorage Center
09:52PM 50.2000 160.3833 234° Southwest 518 596 36,000  Level Anchorage Center
10:00PM 49.5294 158.9694 233° Southwest 518 596 36,000  Level FlightAware Transoceanic
10:01PM 49.4458 158.8012 233° Southwest 518 596 36,000  Level FlightAware Transoceanic
10:02PM 49.3620 158.6336 232° Southwest 518 596 36,000  Level FlightAware Transoceanic
10:03PM 49.2779 158.4665 232° Southwest 518 596 36,000  Level FlightAware Transoceanic
10:04PM 49.1935 158.3000 232° Southwest 518 596 36,000  Level FlightAware Transoceanic
10:05PM 49.1090 158.1341 232° Southwest 518 596 36,000  Level FlightAware Transoceanic
10:06PM 49.0242 157.9687 232° Southwest 518 596 36,000  Level FlightAware Transoceanic
10:07PM 48.9391 157.8039 232° Southwest 518 596 36,000  Level FlightAware Transoceanic
10:08PM 48.8538 157.6396 232° Southwest 518 596 36,000  Level FlightAware Transoceanic
10:09PM 48.7683 157.4760 232° Southwest 518 596 36,000  Level FlightAware Transoceanic
10:10PM 48.6826 157.3128 231° Southwest 518 596 36,000  Level FlightAware Transoceanic
10:11PM 48.5966 157.1503 231° Southwest 518 596 36,000  Level FlightAware Transoceanic
10:12PM 48.5104 156.9883 231° Southwest 518 596 36,000  Level FlightAware Transoceanic
10:13PM 48.4240 156.8268 231° Southwest 518 596 36,000  Level FlightAware Transoceanic
10:14PM 48.3373 156.6659 231° Southwest 518 596 36,000  Level FlightAware Transoceanic
10:15PM 48.2504 156.5055 231° Southwest 518 596 36,000  Level FlightAware Transoceanic
10:16PM 48.1633 156.3457 231° Southwest 518 596 36,000  Level FlightAware Transoceanic
10:17PM 48.0760 156.1864 231° Southwest 518 596 36,000  Level FlightAware Transoceanic
10:18PM 47.9885 156.0276 230° Southwest 518 596 36,000  Level FlightAware Transoceanic
10:19PM 47.9007 155.8694 230° Southwest 518 596 36,000  Level FlightAware Transoceanic
10:20PM 47.8128 155.7118 230° Southwest 518 596 36,000  Level FlightAware Transoceanic
10:21PM 47.7246 155.5546 230° Southwest 518 596 36,000  Level FlightAware Transoceanic
10:22PM 47.6362 155.3980 230° Southwest 518 596 36,000  Level FlightAware Transoceanic
10:23PM 47.5475 155.2420 230° Southwest 518 596 36,000  Level FlightAware Transoceanic
10:24PM 47.4587 155.0864 230° Southwest 518 596 36,000  Level FlightAware Transoceanic
10:25PM 47.3697 154.9314 230° Southwest 518 596 36,000  Level FlightAware Transoceanic
10:26PM 47.2804 154.7769 230° Southwest 518 596 36,000  Level FlightAware Transoceanic
10:27PM 47.1910 154.6229 229° Southwest 518 596 36,000  Level FlightAware Transoceanic
10:28PM 47.1013 154.4695 229° Southwest 518 596 36,000  Level FlightAware Transoceanic
10:29PM 47.0115 154.3165 229° Southwest 518 596 36,000  Level FlightAware Transoceanic
10:30PM 46.9214 154.1641 229° Southwest 518 596 36,000  Level FlightAware Transoceanic
10:31PM 46.8311 154.0122 229° Southwest 518 596 36,000  Level FlightAware Transoceanic
10:32PM 46.7407 153.8608 229° Southwest 518 596 36,000  Level FlightAware Transoceanic
10:33PM 46.6500 153.7099 229° Southwest 518 596 36,000  Level FlightAware Transoceanic
10:34PM 46.5591 153.5595 229° Southwest 518 596 36,000  Level FlightAware Transoceanic
10:35PM 46.4681 153.4096 229° Southwest 518 596 36,000  Level FlightAware Transoceanic
10:36PM 46.3768 153.2602 228° Southwest 518 596 36,000  Level FlightAware Transoceanic
10:37PM 46.2854 153.1113 228° Southwest 518 596 36,000  Level FlightAware Transoceanic
10:38PM 46.1981 152.9704 228° Southwest  Level FlightAware Approximate
10:39PM 46.1102 152.8303 228° Southwest  Level FlightAware Approximate
10:40PM 46.0222 152.6908 228° Southwest  Level FlightAware Approximate
10:41PM 45.9340 152.5517 228° Southwest  Level FlightAware Approximate
10:42PM 45.8456 152.4130 227° Southwest  Level FlightAware Approximate
10:43PM 45.7570 152.2748 227° Southwest  Level FlightAware Approximate
10:44PM 45.6683 152.1370 227° Southwest  Level FlightAware Approximate
10:45PM 45.5794 151.9996 227° Southwest  Level FlightAware Approximate
10:46PM 45.4904 151.8627 227° Southwest  Level FlightAware Approximate
10:47PM 45.4012 151.7262 227° Southwest  Level FlightAware Approximate
10:48PM 45.3118 151.5901 227° Southwest  Level FlightAware Approximate
10:49PM 45.2223 151.4545 227° Southwest  Level FlightAware Approximate
10:50PM 45.1326 151.3193 227° Southwest  Level FlightAware Approximate
10:51PM 45.0428 151.1845 227° Southwest  Level FlightAware Approximate
10:52PM 44.9527 151.0502 227° Southwest  Level FlightAware Approximate
10:53PM 44.8626 150.9162 226° Southwest  Level FlightAware Approximate
10:54PM 44.7723 150.7827 226° Southwest  Level FlightAware Approximate
10:55PM 44.6818 150.6496 225° Southwest  Level FlightAware Approximate
10:56PM 44.5899 150.5186 229° Southwest  Level FlightAware Approximate
10:57PM 44.5034 150.3808 229° Southwest  Level FlightAware Approximate
10:58PM 44.4167 150.2434 228° Southwest  Level FlightAware Approximate
10:59PM 44.3299 150.1064 228° Southwest  Level FlightAware Approximate
11:00PM 44.2429 149.9698 228° Southwest  Level FlightAware Approximate
11:01PM 44.1557 149.8337 228° Southwest  Level FlightAware Approximate
11:02PM 44.0684 149.6979 228° Southwest  Level FlightAware Approximate
11:03PM 43.9809 149.5625 228° Southwest  Level FlightAware Approximate
11:04PM 43.8933 149.4276 228° Southwest  Level FlightAware Approximate
11:05PM 43.8055 149.2930 228° Southwest  Level FlightAware Approximate
11:06PM 43.7175 149.1588 228° Southwest  Level FlightAware Approximate
11:07PM 43.6294 149.0251 228° Southwest  Level FlightAware Approximate
11:08PM 43.5411 148.8917 228° Southwest  Level FlightAware Approximate
11:09PM 43.4527 148.7587 227° Southwest  Level FlightAware Approximate
11:10PM 43.3641 148.6261 227° Southwest  Level FlightAware Approximate
11:11PM 43.2754 148.4938 227° Southwest  Level FlightAware Approximate
11:12PM 43.1865 148.3620 227° Southwest  Level FlightAware Approximate
11:13PM 43.0975 148.2305 227° Southwest  Level FlightAware Approximate
11:14PM 43.0083 148.0995 227° Southwest  Level FlightAware Approximate
11:15PM 42.9189 147.9688 227° Southwest  Level FlightAware Approximate
11:16PM 42.8294 147.8385 227° Southwest  Level FlightAware Approximate
11:17PM 42.7398 147.7085 227° Southwest  Level FlightAware Approximate
11:18PM 42.6500 147.5790 227° Southwest  Level FlightAware Approximate
11:19PM 42.5601 147.4498 227° Southwest  Level FlightAware Approximate
11:20PM 42.4700 147.3210 226° Southwest  Level FlightAware Approximate
11:21PM 42.3798 147.1925 226° Southwest  Level FlightAware Approximate
11:22PM 42.2895 147.0644 226° Southwest  Level FlightAware Approximate
11:23PM 42.1990 146.9367 226° Southwest  Level FlightAware Approximate
11:24PM 42.1083 146.8094 226° Southwest  Level FlightAware Approximate
11:25PM 42.0176 146.6824 231° Southwest  Level FlightAware Approximate
11:26PM 41.9343 146.5466 230° Southwest  Level FlightAware Approximate
11:27PM 41.8508 146.4111 230° Southwest  Level FlightAware Approximate
11:28PM 41.7672 146.2760 230° Southwest  Level FlightAware Approximate
11:29PM 41.6835 146.1413 230° Southwest  Level FlightAware Approximate
11:30PM 41.5996 146.0069 230° Southwest  Level FlightAware Approximate
11:31PM 41.5155 145.8728 230° Southwest  Level FlightAware Approximate
11:32PM 41.4313 145.7391 230° Southwest  Level FlightAware Approximate
11:33PM 41.3469 145.6058 230° Southwest  Level FlightAware Approximate
11:34PM 41.2624 145.4728 230° Southwest  Level FlightAware Approximate
11:35PM 41.1777 145.3401 230° Southwest  Level FlightAware Approximate
11:36PM 41.0928 145.2078 230° Southwest  Level FlightAware Approximate
11:37PM 41.0079 145.0758 229° Southwest  Level FlightAware Approximate
11:38PM 40.9227 144.9442 236° Southwest  Level FlightAware Approximate
11:39PM 40.8489 144.8010 236° Southwest  Level FlightAware Approximate
11:40PM 40.7748 144.6581 236° Southwest  Level FlightAware Approximate
11:41PM 40.7006 144.5155 235° Southwest  Level FlightAware Approximate
11:42PM 40.6262 144.3733 235° Southwest  Level FlightAware Approximate
11:43PM 40.5516 144.2313 235° Southwest  Level FlightAware Approximate
11:44PM 40.4769 144.0897 235° Southwest  Level FlightAware Approximate
11:45PM 40.4019 143.9484 235° Southwest  Level FlightAware Approximate
11:46PM 40.3269 143.8074 235° Southwest  Level FlightAware Approximate
11:47PM 40.2516 143.6668 238° Southwest  Level FlightAware Approximate
11:48PM 40.1825 143.5209 238° Southwest  Level FlightAware Approximate
11:49PM 40.1133 143.3753 238° Southwest  Level FlightAware Approximate
11:50PM 40.0439 143.2300 238° Southwest  Level FlightAware Approximate
11:51PM 39.9743 143.0850 238° Southwest  Level FlightAware Approximate
11:52PM 39.9045 142.9403 238° Southwest  Level FlightAware Approximate
11:53PM 39.8345 142.7959 238° Southwest  Level FlightAware Approximate
11:54PM 39.7644 142.6518 238° Southwest  Level FlightAware Approximate
11:55PM 39.6940 142.5080 238° Southwest  Level FlightAware Approximate
11:56PM 39.6235 142.3645 237° Southwest  Level FlightAware Approximate
11:57PM 39.5528 142.2213 237° Southwest  Level FlightAware Approximate
11:58PM 39.4819 142.0784 237° Southwest  Level FlightAware Approximate
11:59PM 39.4109 141.9357 237° Southwest  Level FlightAware Approximate
12:00AM 39.3397 141.7934 237° Southwest  Level FlightAware Approximate
12:01AM 39.2683 141.6514 237° Southwest  Level FlightAware Approximate
12:02AM 39.1967 141.5096 237° Southwest  Level FlightAware Approximate
12:03AM 39.1250 141.3684 237° Southwest  Level FlightAware Approximate
12:04AM 39.0530 141.2276 237° Southwest  Level FlightAware Approximate
12:05AM 38.9807 141.0872 236° Southwest  Level FlightAware Approximate
12:06AM 38.9083 140.9470 236° Southwest  Level FlightAware Approximate
12:07AM 38.8357 140.8071 236° Southwest  Level FlightAware Approximate
12:08AM 38.7630 140.6675 236° Southwest  Level FlightAware Approximate
12:09AM 38.6901 140.5282 236° Southwest  Level FlightAware Approximate
12:10AM 38.6170 140.3892 236° Southwest  Level FlightAware Approximate
12:11AM 38.5438 140.2504 236° Southwest  Level FlightAware Approximate
12:12AM 38.4703 140.1120 236° Southwest  Level FlightAware Approximate
12:13AM 38.3968 139.9738 236° Southwest  Level FlightAware Approximate
12:14AM 38.3231 139.8359 239° Southwest  Level FlightAware Approximate
12:15AM 38.2556 139.6930 239° Southwest  Level FlightAware Approximate
12:16AM 38.1879 139.5504 239° Southwest  Level FlightAware Approximate
12:17AM 38.1201 139.4081 239° Southwest  Level FlightAware Approximate
12:18AM 38.0521 139.2660 239° Southwest  Level FlightAware Approximate
12:19AM 37.9839 139.1242 227° Southwest  Level FlightAware Approximate
12:20AM 37.8959 139.0057 241° Southwest  Level FlightAware Approximate
12:21AM 37.8322 138.8609 241° Southwest  Level FlightAware Approximate
12:22AM 37.7683 138.7164 241° Southwest  Level FlightAware Approximate
12:23AM 37.7042 138.5721 241° Southwest  Level FlightAware Approximate
12:24AM 37.6400 138.4280 242° Southwest  Level FlightAware Approximate
12:25AM 37.5792 138.2817 242° Southwest  Level FlightAware Approximate
12:26AM 37.5182 138.1357 242° Southwest  Level FlightAware Approximate
12:27AM 37.4571 137.9898 242° Southwest  Level FlightAware Approximate
12:28AM 37.3957 137.8443 245° Southwest  Level FlightAware Approximate
12:29AM 37.3409 137.6947 245° Southwest  Level FlightAware Approximate
12:30AM 37.2859 137.5454 245° Southwest  Level FlightAware Approximate
12:31AM 37.2308 137.3963 245° Southwest  Level FlightAware Approximate
12:32AM 37.1754 137.2474 245° Southwest  Level FlightAware Approximate
12:33AM 37.1199 137.0987 245° Southwest  Level FlightAware Approximate
12:34AM 37.0641 136.9503 245° Southwest  Level FlightAware Approximate
12:35AM 37.0082 136.8020 245° Southwest  Level FlightAware Approximate
12:36AM 36.9521 136.6540 258° West  Level FlightAware Approximate
12:37AM 36.9257 136.4937 258° West  Level FlightAware Approximate
12:38AM 36.8991 136.3334 258° West  Level FlightAware Approximate
12:39AM 36.8723 136.1732 258° West  Level FlightAware Approximate
12:40AM 36.8452 136.0132 258° West  Level FlightAware Approximate
12:41AM 36.8180 135.8533 258° West  Level FlightAware Approximate
12:42AM 36.7905 135.6935 258° West  Level FlightAware Approximate
12:43AM 36.7628 135.5338 258° West  Level FlightAware Approximate
12:44AM 36.7349 135.3742 258° West  Level FlightAware Approximate
12:45AM 36.7068 135.2147 262° West  Level FlightAware Approximate
12:46AM 36.6874 135.0533 261° West  Level FlightAware Approximate
12:47AM 36.6678 134.8920 261° West  Level FlightAware Approximate
12:48AM 36.6479 134.7307 261° West  Level FlightAware Approximate
12:49AM 36.6279 134.5695 268° West  Level FlightAware Approximate
12:50AM 36.6228 134.4066 268° West  Level FlightAware Approximate
12:51AM 36.6175 134.2437 268° West  Level FlightAware Approximate
12:52AM 36.6125 134.0807 271° West  Level FlightAware Approximate
12:53AM 36.6149 133.9177 271° West  Level FlightAware Approximate
12:54AM 36.6171 133.7547 271° West  Level FlightAware Approximate
12:55AM 36.6191 133.5916 279° West  Level FlightAware Approximate
12:56AM 36.6404 133.4308 279° West  Level FlightAware Approximate
12:57AM 36.6616 133.2698 280° West  Level FlightAware Approximate
12:58AM 36.6839 133.1090 280° West  Level FlightAware Approximate
12:59AM 36.7059 132.9481 280° West  Level FlightAware Approximate
01:00AM 36.7277 132.7871 280° West  Level FlightAware Approximate
01:01AM 36.7493 132.6260 279° West  Level FlightAware Approximate
01:02AM 36.7707 132.4649 279° West  Level FlightAware Approximate
01:03AM 36.7919 132.3036 280° West  Level FlightAware Approximate
01:04AM 36.8135 132.1424 279° West  Level FlightAware Approximate
01:05AM 36.8349 131.9811 280° West  Level FlightAware Approximate
01:06AM 36.8569 131.8199 280° West  Level FlightAware Approximate
01:07AM 36.8786 131.6586 280° West  Level FlightAware Approximate
01:08AM 36.9001 131.4972 279° West  Level FlightAware Approximate
01:09AM 36.9214 131.3357 279° West  Level FlightAware Approximate
01:10AM 36.9425 131.1741 279° West  Level FlightAware Approximate
01:11AM 36.9633 131.0124 279° West  Level FlightAware Approximate
01:12AM 36.9840 130.8506 279° West  Level FlightAware Approximate
01:13AM 37.0044 130.6888 279° West  Level FlightAware Approximate
01:14AM 37.0246 130.5269 279° West  Level FlightAware Approximate
01:15AM 37.0445 130.3648 279° West  Level FlightAware Approximate
01:16AM 37.0643 130.2027 279° West  Level FlightAware Approximate
01:17AM 37.0838 130.0405 279° West  Level FlightAware Approximate
01:18AM 37.1031 129.8783 278° West  Level FlightAware Approximate
01:19AM 37.1222 129.7159 278° West  Level FlightAware Approximate
01:20AM 37.1411 129.5535 278° West  Level FlightAware Approximate
01:21AM 37.1597 129.3909 278° West  Level FlightAware Approximate
01:22AM 37.1782 129.2283 278° West  Level FlightAware Approximate
01:23AM 37.1964 129.0656 278° West  Level FlightAware Approximate
01:24AM 37.2143 128.9029 278° West  Level FlightAware Approximate
01:25AM 37.2321 128.7400 278° West  Level FlightAware Approximate
01:26AM 37.2496 128.5771 278° West  Level FlightAware Approximate
01:27AM 37.2669 128.4141 278° West  Level FlightAware Approximate
01:28AM 37.2840 128.2511 277° West  Level FlightAware Approximate
01:29AM 37.3009 128.0879 277° West  Level FlightAware Approximate
01:30AM 37.3175 127.9247 277° West  Level FlightAware Approximate
01:31AM 37.3339 127.7614 277° West  Level FlightAware Approximate
01:32AM 37.3501 127.5981 277° West  Level FlightAware Approximate
01:33AM 37.3662 127.4340 277° West  Level FlightAware Approximate
01:34AM 37.3820 127.2698 277° West  Level FlightAware Approximate
01:35AM 37.3975 127.1055 277° West  Level FlightAware Approximate
01:36AM 37.4129 126.9411 277° West  Level FlightAware Approximate
01:37AM 37.4280 126.7767 268° West  Level FlightAware Approximate
01:38AM 37.4232 126.6138 293° West  Level FlightAware Approximate
01:39AM 37.4740 126.4614 240° Southwest  Level FlightAware Approximate
01:40AM 37.4088 126.3179 114° Southeast  Level Estimated
01:41AM 35.8413 130.4910 298° West  Level FlightAware Approximate
01:42AM 35.9029 130.3479 298° West  Level FlightAware Approximate
01:43AM 35.9644 130.2047 298° West  Level FlightAware Approximate
01:44AM 36.0257 130.0612 298° West  Level FlightAware Approximate
01:45AM 36.0866 129.9180 298° West  Level FlightAware Approximate
01:46AM 36.1473 129.7745 298° West  Level FlightAware Approximate
01:47AM 36.2079 129.6307 298° West  Level FlightAware Approximate
01:48AM 36.2683 129.4868 297° West  Level FlightAware Approximate
01:49AM 36.3286 129.3426 297° West  Level FlightAware Approximate
01:50AM 36.3886 129.1983 297° West  Level FlightAware Approximate
01:51AM 36.4485 129.0536 297° West  Level FlightAware Approximate
01:52AM 36.5082 128.9088 297° West  Level FlightAware Approximate
01:53AM 36.5678 128.7638 297° West  Level FlightAware Approximate
01:54AM 36.6272 128.6185 297° West  Level FlightAware Approximate
01:55AM 36.6863 128.4730 297° West  Level FlightAware Approximate
01:56AM 36.7453 128.3273 297° West  Level FlightAware Approximate
01:57AM 36.8042 128.1813 297° West  Level FlightAware Approximate
01:58AM 36.8628 128.0351 297° West  Level FlightAware Approximate
01:59AM 36.9213 127.8887 296° West  Level FlightAware Approximate
02:00AM 36.9796 127.7421 296° West  Level FlightAware Approximate
02:01AM 37.0377 127.5953 296° West  Level FlightAware Approximate
02:02AM 37.0957 127.4482 296° West  Level FlightAware Approximate
02:03AM 37.1534 127.3009 296° West  Level FlightAware Approximate
02:04AM 37.2110 127.1534 296° West  Level FlightAware Approximate
02:05AM 37.2684 127.0056 296° West  Level FlightAware Approximate
02:06AM 37.3256 126.8577 296° West  Level FlightAware Approximate
02:07AM 37.3826 126.7095 296° West  Level FlightAware Approximate
02:08AM 37.4394 126.5610 293° West  Level FlightAware Approximate
02:09AM 37.4833 126.4333 136° Southeast  Level FlightAware Approximate
02:10AM 37.3887 126.5472 320° Northwest  Level Estimated
02:11AM 37.4766 126.4536 198° South  Level FlightAware Approximate
02:12AM 37.3522 126.4022 18° North  Level Estimated
02:13AM 37.4766 126.4536 18° North  Level Estimated